M I D A S
Marine Information and Data Acquisition System
Tripno 584 of the Zeeleeuw from 2003-09-05 06:59:14 to 2003-09-05 13:47:11
Back to CruiseResearch ActivitiesStationsMapUnderway DataData graphs

EquipmentUnitsComments
TimeDGPSUTC
LatitudeDGPSDM.mWGS84
LongitudeDGPSDM.mWGS84
SpeedMeteo Stationm/sRelative wind speed
DirectionMeteo StationdegRelative wind direction
TemperatureMeteo Stationdeg CelciusAir temperature
PressureMeteo StationPaAtmospheric pressure
HumidityMeteo Station%Relative humidity
Missing or incorrect values are displayed as -999
Metereological data collected by the RV Zeeleeuw from 2003-09-05 06:59:14 to 2003-09-05 13:47:11
                                                                                    Next 1000 lines
Time Latitude Longitude Speed Direction Temperature Pressure Humidity
2003-09-05 06:59:24 51°14.36 2°55.1 0.7 168 14.6 102010 72
2003-09-05 06:59:30 51°14.37 2°55.08 0.5 168 14.6 102010 72
2003-09-05 06:59:34 51°14.38 2°55.07 0.2 165 14.6 102010 72
2003-09-05 06:59:40 51°14.38 2°55.05 0.1 168 14.6 102010 72
2003-09-05 06:59:44 51°14.39 2°55.04 0.7 120 14.6 102010 72
2003-09-05 06:59:50 51°14.4 2°55.02 1 117 14.6 102010 72
2003-09-05 06:59:54 51°14.4 2°55.01 1.1 131 14.6 102010 72
2003-09-05 07:00:00 51°14.41 2°54.99 1.2 137 14.7 102010 72
2003-09-05 07:00:04 51°14.42 2°54.98 1.2 137 14.7 102010 72
2003-09-05 07:00:10 51°14.43 2°54.96 1 154 14.7 102010 72
2003-09-05 07:00:14 51°14.43 2°54.95 0.7 207 14.7 102010 72
2003-09-05 07:00:20 51°14.44 2°54.93 0.8 241 14.7 102010 72
2003-09-05 07:00:24 51°14.44 2°54.92 1.7 263 14.7 102010 72
2003-09-05 07:00:30 51°14.45 2°54.9 2 258 14.7 102010 72
2003-09-05 07:00:34 51°14.45 2°54.89 1.7 266 14.7 102010 72
2003-09-05 07:00:40 51°14.45 2°54.87 2.8 269 14.7 102010 72
2003-09-05 07:00:44 51°14.45 2°54.85 2.1 262 14.7 102010 72
2003-09-05 07:00:50 51°14.46 2°54.83 2.3 245 14.7 102000 72
2003-09-05 07:00:54 51°14.46 2°54.82 1.7 255 14.7 102000 72
2003-09-05 07:01:00 51°14.46 2°54.8 2.8 260 14.8 102000 72
2003-09-05 07:01:04 51°14.46 2°54.78 2.7 265 14.8 102000 72
2003-09-05 07:01:10 51°14.46 2°54.76 2.5 270 14.8 102000 72
2003-09-05 07:01:14 51°14.46 2°54.75 3 274 14.8 102000 72
2003-09-05 07:01:20 51°14.46 2°54.73 3.3 282 14.8 102000 72
2003-09-05 07:01:24 51°14.46 2°54.72 3.8 286 14.8 102000 72
2003-09-05 07:01:30 51°14.46 2°54.7 4.1 272 14.8 102000 72
2003-09-05 07:01:34 51°14.46 2°54.69 3.5 267 14.8 102000 72
2003-09-05 07:01:40 51°14.45 2°54.67 4.9 277 14.8 102000 72
2003-09-05 07:01:44 51°14.45 2°54.66 4.4 266 14.8 102000 72
2003-09-05 07:01:50 51°14.45 2°54.65 3.7 261 14.8 102000 72
2003-09-05 07:01:54 51°14.45 2°54.64 3.5 256 14.8 102000 72
2003-09-05 07:02:00 51°14.45 2°54.63 3.5 256 14.8 102000 72
2003-09-05 07:02:04 51°14.45 2°54.62 4.2 246 14.8 102000 72
2003-09-05 07:02:10 51°14.45 2°54.61 4.4 250 14.8 102000 72
2003-09-05 07:02:14 51°14.45 2°54.6 4.3 247 14.8 102000 72
2003-09-05 07:02:20 51°14.45 2°54.59 3.4 252 14.8 102000 72
2003-09-05 07:02:24 51°14.45 2°54.58 3.1 250 14.8 102000 72
2003-09-05 07:02:30 51°14.45 2°54.57 3.3 256 14.8 102000 72
2003-09-05 07:02:34 51°14.45 2°54.57 3.9 238 14.8 102000 72
2003-09-05 07:02:40 51°14.45 2°54.56 4.5 238 14.8 102000 72
2003-09-05 07:02:44 51°14.45 2°54.55 4.3 240 14.8 102000 72
2003-09-05 07:02:50 51°14.45 2°54.54 4.1 236 14.8 102000 72
2003-09-05 07:02:54 51°14.45 2°54.54 4.3 237 14.8 102000 72
2003-09-05 07:03:00 51°14.45 2°54.53 4 237 14.8 102000 71
2003-09-05 07:03:04 51°14.45 2°54.52 3.5 233 14.8 102000 71
2003-09-05 07:03:10 51°14.45 2°54.51 3.7 233 14.8 102000 71
2003-09-05 07:03:14 51°14.45 2°54.51 4 232 14.8 102000 71
2003-09-05 07:03:20 51°14.45 2°54.5 4.4 231 14.8 102000 71
2003-09-05 07:03:24 51°14.45 2°54.49 3.8 231 14.8 102000 71
2003-09-05 07:03:30 51°14.45 2°54.49 3.9 228 14.8 102000 71
2003-09-05 07:03:36 51°14.46 2°54.48 4.4 233 14.8 102000 71
2003-09-05 07:03:40 51°14.46 2°54.47 4.7 231 14.8 102000 71
2003-09-05 07:03:44 51°14.46 2°54.47 4.4 229 14.8 102000 71
2003-09-05 07:03:50 51°14.46 2°54.46 4.5 229 14.8 102000 71
2003-09-05 07:03:54 51°14.46 2°54.46 4.2 228 14.8 102000 71
2003-09-05 07:04:00 51°14.46 2°54.45 4.5 233 14.8 102000 72
2003-09-05 07:04:04 51°14.46 2°54.45 5.2 232 14.8 102000 72
2003-09-05 07:04:10 51°14.46 2°54.44 5.2 235 14.8 102000 71
2003-09-05 07:04:14 51°14.47 2°54.44 4.6 236 14.8 102000 71
2003-09-05 07:04:20 51°14.47 2°54.43 4.9 246 14.8 102000 72
2003-09-05 07:04:24 51°14.47 2°54.43 4.8 237 14.8 102000 72
2003-09-05 07:04:30 51°14.47 2°54.42 3.8 253 14.9 102000 72
2003-09-05 07:04:34 51°14.47 2°54.42 5.1 239 14.9 102000 72
2003-09-05 07:04:40 51°14.47 2°54.41 5.4 240 14.9 101990 72
2003-09-05 07:04:44 51°14.47 2°54.41 5 243 14.9 101990 72
2003-09-05 07:04:50 51°14.47 2°54.4 5 245 14.9 102000 71
2003-09-05 07:04:54 51°14.47 2°54.4 5 241 14.9 102000 71
2003-09-05 07:05:00 51°14.47 2°54.39 4.2 247 14.9 102000 71
2003-09-05 07:05:04 51°14.47 2°54.39 4.3 243 14.9 102000 71
2003-09-05 07:05:10 51°14.47 2°54.38 4.1 252 14.8 102000 71
2003-09-05 07:05:14 51°14.47 2°54.38 5.3 236 14.8 102000 71
2003-09-05 07:05:20 51°14.47 2°54.37 5.2 243 14.8 102000 71
2003-09-05 07:05:24 51°14.47 2°54.37 4.6 242 14.8 102000 71
2003-09-05 07:05:30 51°14.47 2°54.36 4.5 245 14.8 101990 71
2003-09-05 07:05:34 51°14.47 2°54.36 4.2 249 14.8 101990 71
2003-09-05 07:05:40 51°14.47 2°54.36 4.2 250 14.9 102000 71
2003-09-05 07:05:44 51°14.47 2°54.35 4.9 251 14.9 102000 71
2003-09-05 07:05:50 51°14.47 2°54.35 4.6 244 14.9 102000 71
2003-09-05 07:05:56 51°14.47 2°54.34 4.5 248 14.9 102000 71
2003-09-05 07:06:00 51°14.47 2°54.34 4.1 246 14.9 102000 71
2003-09-05 07:06:04 51°14.47 2°54.33 4.4 245 14.9 102000 71
2003-09-05 07:06:10 51°14.47 2°54.33 4.3 246 14.9 102000 71
2003-09-05 07:06:14 51°14.47 2°54.33 5 246 14.9 102000 71
2003-09-05 07:06:20 51°14.47 2°54.32 4 252 14.9 102000 71
2003-09-05 07:06:24 51°14.47 2°54.32 3.1 256 14.9 102000 71
2003-09-05 07:06:30 51°14.47 2°54.31 3.9 255 14.9 102000 71
2003-09-05 07:06:34 51°14.47 2°54.31 3.6 252 14.9 102000 71
2003-09-05 07:06:40 51°14.46 2°54.29 2.2 255 14.9 102000 71
2003-09-05 07:06:44 51°14.46 2°54.28 4.7 260 14.9 102000 71
2003-09-05 07:06:50 51°14.46 2°54.27 4.7 263 14.9 102000 70
2003-09-05 07:06:54 51°14.46 2°54.26 4.4 277 14.9 102000 70
2003-09-05 07:07:00 51°14.45 2°54.24 4 284 14.8 102000 70
2003-09-05 07:07:04 51°14.45 2°54.23 4.2 284 14.8 102000 70
2003-09-05 07:07:10 51°14.45 2°54.2 4.4 290 14.8 101990 70
2003-09-05 07:07:14 51°14.44 2°54.19 5 290 14.8 101990 70
2003-09-05 07:07:20 51°14.44 2°54.16 3.8 293 14.9 101990 70
2003-09-05 07:07:24 51°14.43 2°54.15 4.6 301 14.9 101990 70
2003-09-05 07:07:30 51°14.43 2°54.12 4.9 304 14.9 102000 70
2003-09-05 07:07:36 51°14.42 2°54.09 5.5 302 14.9 102000 70
2003-09-05 07:07:40 51°14.41 2°54.08 5.3 302 14.9 102000 71
2003-09-05 07:07:44 51°14.41 2°54.06 6.8 315 14.9 102000 71
2003-09-05 07:07:50 51°14.4 2°54.03 5.5 311 14.9 101990 70
2003-09-05 07:07:54 51°14.39 2°54.01 6 312 14.9 101990 70
2003-09-05 07:08:00 51°14.38 2°53.98 5.8 316 14.9 102000 70
2003-09-05 07:08:04 51°14.38 2°53.96 5.2 318 14.9 102000 70
2003-09-05 07:08:10 51°14.37 2°53.93 6.3 317 14.9 101990 71
2003-09-05 07:08:14 51°14.36 2°53.91 5.9 324 14.9 101990 71
2003-09-05 07:08:20 51°14.35 2°53.88 6.6 43 15 101990 70
2003-09-05 07:08:24 51°14.35 2°53.86 6.7 228 15 101990 70
2003-09-05 07:08:30 51°14.34 2°53.83 6.5 227 15 101990 71
2003-09-05 07:08:34 51°14.33 2°53.81 5.6 312 15 101990 71
2003-09-05 07:08:40 51°14.32 2°53.79 6.9 318 15 101990 70
2003-09-05 07:08:44 51°14.32 2°53.77 6.4 44 15 101990 70
2003-09-05 07:08:50 51°14.3 2°53.74 6 321 15 101990 70
2003-09-05 07:08:54 51°14.3 2°53.72 8 318 15 101990 70
2003-09-05 07:09:00 51°14.29 2°53.69 7.3 314 15.1 101990 70
2003-09-05 07:09:04 51°14.28 2°53.67 7.5 311 15.1 101990 70
2003-09-05 07:09:10 51°14.27 2°53.64 6.1 229 15.1 101990 70
2003-09-05 07:09:14 51°14.26 2°53.62 6.2 307 15.1 101990 70
2003-09-05 07:09:20 51°14.25 2°53.59 7 320 15.1 101990 70
2003-09-05 07:09:24 51°14.25 2°53.57 6.4 320 15.1 101990 70
2003-09-05 07:09:30 51°14.24 2°53.55 7.1 318 15.2 101990 69
2003-09-05 07:09:34 51°14.23 2°53.53 7.9 319 15.2 101990 69
2003-09-05 07:09:40 51°14.22 2°53.5 7.4 313 15.2 101990 70
2003-09-05 07:09:44 51°14.21 2°53.48 6.9 227 15.2 101990 70
2003-09-05 07:09:50 51°14.2 2°53.45 7.4 315 15.2 101980 69
2003-09-05 07:09:54 51°14.2 2°53.43 7.1 316 15.2 101980 69
2003-09-05 07:10:00 51°14.19 2°53.4 7.5 319 15.2 101990 69
2003-09-05 07:10:04 51°14.18 2°53.38 8.1 228 15.2 101990 69
2003-09-05 07:10:10 51°14.17 2°53.35 6.7 226 15.3 101980 68
2003-09-05 07:10:14 51°14.16 2°53.33 6.8 315 15.3 101980 68
2003-09-05 07:10:20 51°14.15 2°53.31 7.8 314 15.3 101980 68
2003-09-05 07:10:24 51°14.14 2°53.29 7.3 323 15.3 101980 68
2003-09-05 07:10:30 51°14.13 2°53.26 7.2 228 15.3 101980 68
2003-09-05 07:10:34 51°14.13 2°53.24 6.8 40 15.3 101980 68
2003-09-05 07:10:40 51°14.12 2°53.21 6.5 313 15.3 101990 68
2003-09-05 07:10:44 51°14.11 2°53.19 6.8 315 15.3 101990 68
2003-09-05 07:10:50 51°14.1 2°53.16 6.4 314 15.3 101980 68
2003-09-05 07:10:54 51°14.09 2°53.14 7.2 312 15.3 101980 68
2003-09-05 07:11:00 51°14.08 2°53.11 7.8 310 15.4 101990 68
2003-09-05 07:11:04 51°14.08 2°53.09 7.7 311 15.4 101990 68
2003-09-05 07:11:10 51°14.07 2°53.06 7.6 304 15.4 101990 68
2003-09-05 07:11:14 51°14.06 2°53.04 6.3 312 15.4 101990 68
2003-09-05 07:11:20 51°14.05 2°53.01 7.1 41 15.4 101990 69
2003-09-05 07:11:24 51°14.04 2°52.99 6.9 316 15.4 101990 69
2003-09-05 07:11:30 51°14.03 2°52.96 8.2 306 15.4 101980 68
2003-09-05 07:11:34 51°14.03 2°52.94 7.8 228 15.4 101980 68
2003-09-05 07:11:40 51°14.02 2°52.92 8.2 312 15.4 101990 68
2003-09-05 07:11:44 51°14.01 2°52.9 8.2 310 15.4 101990 68
2003-09-05 07:11:50 51°14 2°52.87 7.3 315 15.4 101980 68
2003-09-05 07:11:54 51°13.99 2°52.85 8 313 15.4 101980 68
2003-09-05 07:12:00 51°13.98 2°52.82 8.3 313 15.4 101980 68
2003-09-05 07:12:04 51°13.98 2°52.8 7.2 307 15.4 101980 68
2003-09-05 07:12:10 51°13.97 2°52.77 7.5 311 15.5 101990 68
2003-09-05 07:12:16 51°13.96 2°52.74 7.9 311 15.5 101990 68
2003-09-05 07:12:20 51°13.95 2°52.72 8.8 226 15.5 101980 67
2003-09-05 07:12:24 51°13.94 2°52.7 7.4 312 15.5 101980 67
2003-09-05 07:12:30 51°13.93 2°52.67 7.2 228 15.5 101980 67
2003-09-05 07:12:34 51°13.92 2°52.65 7.1 228 15.5 101980 67
2003-09-05 07:12:40 51°13.91 2°52.62 7.5 314 15.5 101990 67
2003-09-05 07:12:44 51°13.91 2°52.61 6.7 314 15.5 101990 67
2003-09-05 07:12:50 51°13.9 2°52.58 7.5 313 15.5 101990 66
2003-09-05 07:12:54 51°13.89 2°52.56 6.8 316 15.5 101990 66
2003-09-05 07:13:00 51°13.88 2°52.53 6.9 316 15.5 101980 67
2003-09-05 07:13:04 51°13.87 2°52.51 7.5 37 15.5 101980 67
2003-09-05 07:13:10 51°13.86 2°52.48 8.2 308 15.5 101980 66
2003-09-05 07:13:14 51°13.86 2°52.46 8.1 309 15.5 101980 66
2003-09-05 07:13:20 51°13.85 2°52.43 7.8 308 15.5 101980 66
2003-09-05 07:13:24 51°13.84 2°52.41 8.2 312 15.5 101980 66
2003-09-05 07:13:30 51°13.83 2°52.38 7.5 313 15.5 101980 67
2003-09-05 07:13:34 51°13.82 2°52.36 8.7 312 15.5 101980 67
2003-09-05 07:13:40 51°13.81 2°52.33 7.7 312 15.5 101980 66
2003-09-05 07:13:44 51°13.81 2°52.31 8.1 227 15.5 101980 66
2003-09-05 07:13:50 51°13.79 2°52.28 8.4 229 15.6 101980 66
2003-09-05 07:13:54 51°13.79 2°52.26 7.5 230 15.6 101980 66
2003-09-05 07:14:00 51°13.78 2°52.23 6.9 316 15.6 101980 66
2003-09-05 07:14:04 51°13.77 2°52.21 7.8 42 15.6 101980 66
2003-09-05 07:14:10 51°13.76 2°52.18 7.4 311 15.6 101980 66
2003-09-05 07:14:14 51°13.75 2°52.16 8.2 43 15.6 101980 66
2003-09-05 07:14:20 51°13.74 2°52.13 8.2 313 15.6 101980 66
2003-09-05 07:14:24 51°13.74 2°52.12 7.3 309 15.6 101980 66
2003-09-05 07:14:30 51°13.73 2°52.09 6.9 312 15.6 101980 66
2003-09-05 07:14:34 51°13.72 2°52.07 6.9 315 15.6 101980 66
2003-09-05 07:14:40 51°13.71 2°52.04 7.9 313 15.6 101980 66
2003-09-05 07:14:44 51°13.7 2°52.02 7.4 316 15.6 101980 66
2003-09-05 07:14:50 51°13.69 2°51.99 7.8 313 15.6 101980 66
2003-09-05 07:14:54 51°13.68 2°51.97 7.1 43 15.6 101980 66
2003-09-05 07:15:00 51°13.67 2°51.94 6.9 312 15.6 101970 66
2003-09-05 07:15:04 51°13.67 2°51.92 7.5 315 15.6 101970 66
2003-09-05 07:15:10 51°13.66 2°51.89 6.4 313 15.6 101980 66
2003-09-05 07:15:14 51°13.65 2°51.87 7.3 314 15.6 101980 66
2003-09-05 07:15:20 51°13.64 2°51.85 6.3 312 15.6 101980 66
2003-09-05 07:15:24 51°13.63 2°51.83 7.1 315 15.6 101980 66
2003-09-05 07:15:30 51°13.62 2°51.8 7.9 313 15.6 101980 66
2003-09-05 07:15:36 51°13.61 2°51.77 7.9 312 15.6 101980 66
2003-09-05 07:15:40 51°13.61 2°51.75 8 308 15.6 101970 66
2003-09-05 07:15:44 51°13.6 2°51.73 6.9 315 15.6 101970 66
2003-09-05 07:15:50 51°13.59 2°51.7 7.1 311 15.6 101980 66
2003-09-05 07:15:54 51°13.58 2°51.68 7 312 15.6 101980 66
2003-09-05 07:16:00 51°13.57 2°51.65 7.4 311 15.6 101970 67
2003-09-05 07:16:04 51°13.57 2°51.63 6.7 314 15.6 101970 67
2003-09-05 07:16:10 51°13.56 2°51.6 7.8 311 15.6 101970 66
2003-09-05 07:16:14 51°13.55 2°51.58 7.1 311 15.6 101970 66
2003-09-05 07:16:20 51°13.54 2°51.55 6.4 314 15.6 101970 66
2003-09-05 07:16:24 51°13.53 2°51.53 3.3 318 15.6 101970 66
2003-09-05 07:16:30 51°13.52 2°51.5 6.6 44 15.6 101970 66
2003-09-05 07:16:34 51°13.52 2°51.49 6.5 40 15.6 101970 66
2003-09-05 07:16:40 51°13.51 2°51.46 6.7 230 15.6 101970 66
2003-09-05 07:16:44 51°13.5 2°51.44 6.7 227 15.6 101970 66
2003-09-05 07:16:50 51°13.49 2°51.41 7.8 309 15.6 101970 66
2003-09-05 07:16:54 51°13.48 2°51.39 7.7 306 15.6 101970 66
2003-09-05 07:17:00 51°13.47 2°51.36 7.2 314 15.6 101970 67
2003-09-05 07:17:04 51°13.47 2°51.34 6.9 228 15.6 101970 67
2003-09-05 07:17:10 51°13.46 2°51.31 6.9 314 15.7 101970 67
2003-09-05 07:17:14 51°13.45 2°51.29 7.1 43 15.7 101970 67
2003-09-05 07:17:20 51°13.44 2°51.27 7.8 319 15.6 101970 67
2003-09-05 07:17:24 51°13.43 2°51.25 7.7 229 15.6 101970 67
2003-09-05 07:17:30 51°13.42 2°51.22 7.2 311 15.7 101970 67
2003-09-05 07:17:34 51°13.41 2°51.2 7 320 15.7 101970 67
2003-09-05 07:17:40 51°13.4 2°51.17 6.8 41 15.7 101970 67
2003-09-05 07:17:44 51°13.4 2°51.15 6.6 314 15.7 101970 67
2003-09-05 07:17:50 51°13.39 2°51.12 6.8 227 15.7 101970 67
2003-09-05 07:17:54 51°13.38 2°51.1 6.8 313 15.7 101970 67
2003-09-05 07:18:00 51°13.37 2°51.07 7.3 311 15.7 101970 67
2003-09-05 07:18:04 51°13.36 2°51.05 7.6 317 15.7 101970 67
2003-09-05 07:18:10 51°13.35 2°51.03 6.7 315 15.7 101970 67
2003-09-05 07:18:14 51°13.35 2°51.01 7.2 42 15.7 101970 67
2003-09-05 07:18:20 51°13.34 2°50.98 7.5 305 15.7 101970 67
2003-09-05 07:18:24 51°13.33 2°50.96 6.7 303 15.7 101970 67
2003-09-05 07:18:30 51°13.32 2°50.93 7.3 308 15.7 101980 68
2003-09-05 07:18:34 51°13.31 2°50.91 6.9 40 15.7 101980 68
2003-09-05 07:18:40 51°13.3 2°50.88 6.6 317 15.7 101970 68
2003-09-05 07:18:44 51°13.3 2°50.86 8.1 40 15.7 101970 68
2003-09-05 07:18:50 51°13.28 2°50.83 7.3 313 15.7 101970 69
2003-09-05 07:18:54 51°13.28 2°50.81 8 314 15.7 101970 69
2003-09-05 07:19:00 51°13.27 2°50.78 6.1 227 15.7 101980 69
2003-09-05 07:19:04 51°13.26 2°50.76 7.8 312 15.7 101980 69
2003-09-05 07:19:10 51°13.25 2°50.73 7 314 15.7 101980 70
2003-09-05 07:19:14 51°13.25 2°50.71 8 312 15.7 101980 70
2003-09-05 07:19:20 51°13.24 2°50.68 6.6 312 15.7 101970 70
2003-09-05 07:19:24 51°13.23 2°50.66 7.7 309 15.7 101970 70
2003-09-05 07:19:30 51°13.22 2°50.63 7.3 42 15.7 101970 70
2003-09-05 07:19:34 51°13.21 2°50.61 8 314 15.7 101970 70
2003-09-05 07:19:40 51°13.2 2°50.59 8.5 228 15.7 101970 70
2003-09-05 07:19:44 51°13.2 2°50.57 7.7 311 15.7 101970 70
2003-09-05 07:19:50 51°13.19 2°50.54 8.2 231 15.7 101970 70
2003-09-05 07:19:54 51°13.18 2°50.52 7.4 226 15.7 101970 70
2003-09-05 07:20:00 51°13.17 2°50.49 7.7 310 15.7 101970 70
2003-09-05 07:20:04 51°13.16 2°50.47 7.5 315 15.7 101970 70
2003-09-05 07:20:10 51°13.15 2°50.44 8.1 312 15.7 101980 70
2003-09-05 07:20:16 51°13.14 2°50.41 7.4 231 15.7 101980 70
2003-09-05 07:20:20 51°13.13 2°50.39 7.2 310 15.7 101970 70
2003-09-05 07:20:24 51°13.13 2°50.37 7.5 313 15.7 101970 70
2003-09-05 07:20:30 51°13.12 2°50.34 8.1 316 15.7 101970 70
2003-09-05 07:20:34 51°13.11 2°50.32 7.6 226 15.7 101970 70
2003-09-05 07:20:40 51°13.1 2°50.29 7.2 311 15.6 101980 70
2003-09-05 07:20:44 51°13.09 2°50.27 8.1 309 15.6 101980 70
2003-09-05 07:20:50 51°13.08 2°50.24 8.1 308 15.6 101970 70
2003-09-05 07:20:54 51°13.07 2°50.22 7.4 309 15.6 101970 70
2003-09-05 07:21:00 51°13.06 2°50.2 7.5 315 15.6 101980 70
2003-09-05 07:21:04 51°13.06 2°50.18 6.9 315 15.6 101980 70
2003-09-05 07:21:10 51°13.05 2°50.15 7.8 313 15.6 101970 70
2003-09-05 07:21:14 51°13.04 2°50.13 7.2 312 15.6 101970 70
2003-09-05 07:21:20 51°13.03 2°50.1 7.2 314 15.6 101970 70
2003-09-05 07:21:24 51°13.02 2°50.08 7.6 228 15.6 101970 70
2003-09-05 07:21:30 51°13.01 2°50.05 7.1 42 15.6 101970 69
2003-09-05 07:21:34 51°13.01 2°50.03 8 228 15.6 101970 69
2003-09-05 07:21:40 51°13 2°50 7.4 316 15.6 101980 69
2003-09-05 07:21:44 51°12.99 2°49.98 7.1 308 15.6 101980 69
2003-09-05 07:21:50 51°12.98 2°49.95 7.1 309 15.6 101980 69
2003-09-05 07:21:54 51°12.97 2°49.93 6.7 229 15.6 101980 69
2003-09-05 07:22:00 51°12.96 2°49.9 7.2 311 15.6 101970 69
2003-09-05 07:22:04 51°12.96 2°49.88 7 310 15.6 101970 69
2003-09-05 07:22:10 51°12.95 2°49.85 7.6 313 15.6 101970 69
2003-09-05 07:22:14 51°12.94 2°49.83 7.8 312 15.6 101970 69
2003-09-05 07:22:20 51°12.93 2°49.8 8.1 310 15.5 101980 69
2003-09-05 07:22:24 51°12.92 2°49.78 7.5 314 15.5 101980 69
2003-09-05 07:22:30 51°12.91 2°49.75 7.5 316 15.5 101970 69
2003-09-05 07:22:34 51°12.91 2°49.74 8.3 307 15.5 101970 69
2003-09-05 07:22:40 51°12.9 2°49.71 7.3 309 15.5 101970 69
2003-09-05 07:22:44 51°12.89 2°49.69 7.2 309 15.5 101970 69
2003-09-05 07:22:50 51°12.88 2°49.66 7.2 308 15.5 101970 69
2003-09-05 07:22:54 51°12.87 2°49.64 7.1 309 15.5 101970 69
2003-09-05 07:23:00 51°12.86 2°49.61 7.6 312 15.5 101970 69
2003-09-05 07:23:04 51°12.86 2°49.59 8.3 227 15.5 101970 69
2003-09-05 07:23:10 51°12.85 2°49.56 8.2 313 15.5 101970 69
2003-09-05 07:23:14 51°12.84 2°49.54 7.2 315 15.5 101970 69
2003-09-05 07:23:20 51°12.83 2°49.51 8.4 317 15.5 101980 69
2003-09-05 07:23:24 51°12.82 2°49.49 8.9 314 15.5 101980 69
2003-09-05 07:23:30 51°12.81 2°49.46 7.9 309 15.5 101980 70
2003-09-05 07:23:34 51°12.81 2°49.45 7.9 309 15.5 101980 70
2003-09-05 07:23:40 51°12.8 2°49.42 7.8 310 15.5 101980 70
2003-09-05 07:23:44 51°12.79 2°49.4 7.7 310 15.5 101980 70
2003-09-05 07:23:50 51°12.78 2°49.37 7 315 15.5 101970 70
2003-09-05 07:23:54 51°12.77 2°49.35 8.4 228 15.5 101970 70
2003-09-05 07:24:00 51°12.76 2°49.32 8.6 226 15.5 101970 70
2003-09-05 07:24:04 51°12.75 2°49.3 8.3 311 15.5 101970 70
2003-09-05 07:24:10 51°12.74 2°49.27 8.5 313 15.4 101980 69
2003-09-05 07:24:14 51°12.74 2°49.25 8.1 313 15.4 101980 69
2003-09-05 07:24:20 51°12.73 2°49.22 8.2 307 15.4 101980 70
2003-09-05 07:24:24 51°12.72 2°49.21 7.9 310 15.4 101980 70
2003-09-05 07:24:30 51°12.71 2°49.18 8.8 313 15.4 101980 70
2003-09-05 07:24:34 51°12.7 2°49.16 7.7 232 15.4 101980 70
2003-09-05 07:24:40 51°12.69 2°49.13 7.9 308 15.4 101980 70
2003-09-05 07:24:44 51°12.69 2°49.11 7.8 313 15.4 101980 70
2003-09-05 07:24:50 51°12.68 2°49.08 7.3 314 15.4 101980 70
2003-09-05 07:24:54 51°12.67 2°49.06 7.7 313 15.4 101980 70
2003-09-05 07:24:59 51°12.66 2°49.04 7.8 312 15.4 101980 70
2003-09-05 07:25:04 51°12.65 2°49.01 7.5 314 15.4 101980 70
2003-09-05 07:25:10 51°12.64 2°48.98 8.7 310 15.4 101980 70
2003-09-05 07:25:14 51°12.63 2°48.96 8.2 314 15.4 101980 70
2003-09-05 07:25:20 51°12.62 2°48.93 8.5 306 15.4 101980 70
2003-09-05 07:25:24 51°12.62 2°48.92 7.9 310 15.4 101980 70
2003-09-05 07:25:30 51°12.61 2°48.89 8.3 227 15.4 101980 70
2003-09-05 07:25:34 51°12.6 2°48.87 8 312 15.4 101980 70
2003-09-05 07:25:40 51°12.59 2°48.84 8 310 15.3 101980 70
2003-09-05 07:25:44 51°12.58 2°48.82 7.6 310 15.3 101980 70
2003-09-05 07:25:50 51°12.57 2°48.79 8.3 310 15.4 101990 70
2003-09-05 07:25:54 51°12.56 2°48.77 8 311 15.4 101990 70
2003-09-05 07:26:00 51°12.55 2°48.74 7.1 308 15.4 101980 70
2003-09-05 07:26:04 51°12.55 2°48.72 6.8 42 15.4 101980 70
2003-09-05 07:26:10 51°12.54 2°48.69 8.2 314 15.3 101980 70
2003-09-05 07:26:14 51°12.53 2°48.67 7.5 311 15.3 101980 70
2003-09-05 07:26:20 51°12.52 2°48.64 8 232 15.3 101980 70
2003-09-05 07:26:24 51°12.51 2°48.62 7.8 313 15.3 101980 70
2003-09-05 07:26:30 51°12.5 2°48.59 8.1 310 15.3 101980 71
2003-09-05 07:26:34 51°12.5 2°48.57 7.4 309 15.3 101980 71
2003-09-05 07:26:40 51°12.49 2°48.55 8.1 312 15.4 101980 71
2003-09-05 07:26:44 51°12.48 2°48.53 7.7 309 15.4 101980 71
2003-09-05 07:26:50 51°12.47 2°48.5 7.9 311 15.3 101980 71
2003-09-05 07:26:54 51°12.46 2°48.48 8.2 43 15.3 101980 71
2003-09-05 07:27:00 51°12.45 2°48.45 7.7 315 15.3 101980 71
2003-09-05 07:27:04 51°12.44 2°48.43 8.2 315 15.3 101980 71
2003-09-05 07:27:10 51°12.43 2°48.4 8.5 313 15.3 101980 71
2003-09-05 07:27:14 51°12.43 2°48.38 6.9 306 15.3 101980 71
2003-09-05 07:27:20 51°12.42 2°48.35 7.2 312 15.3 101980 70
2003-09-05 07:27:24 51°12.41 2°48.33 7.1 310 15.3 101980 70
2003-09-05 07:27:30 51°12.4 2°48.3 6.9 315 15.3 101980 70
2003-09-05 07:27:34 51°12.4 2°48.28 6.5 315 15.3 101980 70
2003-09-05 07:27:40 51°12.39 2°48.26 7.6 317 15.3 101980 70
2003-09-05 07:27:44 51°12.38 2°48.24 7.4 314 15.3 101980 70
2003-09-05 07:27:50 51°12.37 2°48.21 6.8 313 15.3 101980 70
2003-09-05 07:27:54 51°12.36 2°48.19 6.6 313 15.3 101980 70
2003-09-05 07:28:00 51°12.35 2°48.16 7.9 315 15.3 101980 71
2003-09-05 07:28:04 51°12.35 2°48.14 8.1 310 15.3 101980 71
2003-09-05 07:28:10 51°12.34 2°48.11 6.6 308 15.3 101980 71
2003-09-05 07:28:14 51°12.33 2°48.09 7 314 15.3 101980 71
2003-09-05 07:28:20 51°12.32 2°48.06 7.6 315 15.3 101980 71
2003-09-05 07:28:24 51°12.31 2°48.04 7.7 313 15.3 101980 71
2003-09-05 07:28:30 51°12.3 2°48.01 7.6 308 15.2 101980 70
2003-09-05 07:28:34 51°12.3 2°47.99 8.2 309 15.2 101980 70
2003-09-05 07:28:40 51°12.29 2°47.96 7.1 305 15.3 101980 71
2003-09-05 07:28:44 51°12.28 2°47.94 6.5 309 15.3 101980 71
2003-09-05 07:28:50 51°12.27 2°47.91 6.7 311 15.3 101980 71
2003-09-05 07:28:54 51°12.26 2°47.89 7.2 43 15.3 101980 71
2003-09-05 07:29:00 51°12.25 2°47.86 7.3 306 15.3 101980 71
2003-09-05 07:29:04 51°12.25 2°47.84 6.6 307 15.3 101980 71
2003-09-05 07:29:10 51°12.23 2°47.81 6.9 311 15.2 101980 71
2003-09-05 07:29:14 51°12.23 2°47.79 7.6 317 15.2 101980 71
2003-09-05 07:29:20 51°12.22 2°47.76 7.7 316 15.3 101980 71
2003-09-05 07:29:24 51°12.21 2°47.74 7.9 314 15.3 101980 71
2003-09-05 07:29:30 51°12.2 2°47.72 7 314 15.3 101980 71
2003-09-05 07:29:34 51°12.19 2°47.7 7.5 314 15.3 101980 71
2003-09-05 07:29:40 51°12.18 2°47.67 6.3 312 15.3 101980 71
2003-09-05 07:29:44 51°12.17 2°47.65 7.1 313 15.3 101980 71
2003-09-05 07:29:50 51°12.16 2°47.62 6.5 315 15.3 101980 71
2003-09-05 07:29:54 51°12.16 2°47.6 6.1 315 15.3 101980 71
2003-09-05 07:30:00 51°12.15 2°47.57 6.6 314 15.2 101980 71
2003-09-05 07:30:04 51°12.14 2°47.55 7.6 315 15.2 101980 71
2003-09-05 07:30:10 51°12.13 2°47.52 7.8 309 15.3 101980 71
2003-09-05 07:30:14 51°12.12 2°47.5 7.5 316 15.3 101980 71
2003-09-05 07:30:20 51°12.11 2°47.47 7.5 309 15.3 101990 71
2003-09-05 07:30:24 51°12.11 2°47.45 6.8 311 15.3 101990 71
2003-09-05 07:30:30 51°12.1 2°47.42 6.3 310 15.3 101980 72
2003-09-05 07:30:34 51°12.09 2°47.4 7.1 307 15.3 101980 72
2003-09-05 07:30:40 51°12.08 2°47.38 7 309 15.3 101980 71
2003-09-05 07:30:44 51°12.07 2°47.36 7.2 312 15.3 101980 71
2003-09-05 07:30:50 51°12.06 2°47.33 6.3 309 15.3 101980 71
2003-09-05 07:30:54 51°12.06 2°47.31 6.4 313 15.3 101980 71
2003-09-05 07:31:00 51°12.05 2°47.28 7 315 15.3 101980 71
2003-09-05 07:31:04 51°12.04 2°47.26 6.7 314 15.3 101980 71
2003-09-05 07:31:10 51°12.03 2°47.23 6.3 317 15.3 101980 71
2003-09-05 07:31:14 51°12.02 2°47.21 7 313 15.3 101980 71
2003-09-05 07:31:20 51°12.01 2°47.18 7 313 15.3 101980 71
2003-09-05 07:31:24 51°12.01 2°47.16 7.6 316 15.3 101980 71
2003-09-05 07:31:30 51°12 2°47.13 7.8 313 15.3 101990 71
2003-09-05 07:31:34 51°11.99 2°47.11 7.9 313 15.3 101990 71
2003-09-05 07:31:40 51°11.98 2°47.09 7.2 312 15.3 101980 71
2003-09-05 07:31:44 51°11.97 2°47.07 7.6 311 15.3 101980 71
2003-09-05 07:31:50 51°11.96 2°47.04 7.2 227 15.3 101980 71
2003-09-05 07:31:54 51°11.96 2°47.02 7.3 314 15.3 101980 71
2003-09-05 07:32:00 51°11.95 2°46.99 6.6 311 15.3 101980 71
2003-09-05 07:32:04 51°11.94 2°46.97 6.7 42 15.3 101980 71
2003-09-05 07:32:10 51°11.93 2°46.94 7.6 43 15.3 101980 70
2003-09-05 07:32:14 51°11.92 2°46.92 6.7 310 15.3 101980 70
2003-09-05 07:32:20 51°11.91 2°46.89 6.5 310 15.3 101980 70
2003-09-05 07:32:24 51°11.91 2°46.87 6.2 308 15.3 101980 70
2003-09-05 07:32:30 51°11.9 2°46.84 6.7 315 15.3 101980 70
2003-09-05 07:32:34 51°11.89 2°46.82 6.8 309 15.3 101980 70
2003-09-05 07:32:40 51°11.88 2°46.79 6.4 312 15.3 101980 70
2003-09-05 07:32:44 51°11.87 2°46.77 7.1 228 15.3 101980 70
2003-09-05 07:32:50 51°11.86 2°46.74 7.3 313 15.4 101980 71
2003-09-05 07:32:54 51°11.86 2°46.73 7.4 312 15.4 101980 71
2003-09-05 07:33:00 51°11.85 2°46.7 7 319 15.4 101980 70
2003-09-05 07:33:04 51°11.84 2°46.68 7.3 315 15.4 101980 70
2003-09-05 07:33:10 51°11.83 2°46.65 7.3 313 15.4 101980 70
2003-09-05 07:33:14 51°11.82 2°46.63 8.5 311 15.4 101980 70
2003-09-05 07:33:20 51°11.81 2°46.6 6.6 315 15.4 101990 70
2003-09-05 07:33:24 51°11.81 2°46.58 7.8 310 15.4 101990 70
2003-09-05 07:33:30 51°11.8 2°46.55 7.5 313 15.4 101980 71
2003-09-05 07:33:34 51°11.79 2°46.53 7.3 313 15.4 101980 71
2003-09-05 07:33:40 51°11.78 2°46.5 7.3 311 15.4 101980 70
2003-09-05 07:33:44 51°11.77 2°46.48 7 314 15.4 101980 70
2003-09-05 07:33:50 51°11.76 2°46.45 7.1 311 15.4 101980 71
2003-09-05 07:33:54 51°11.76 2°46.43 6.9 310 15.4 101980 71
2003-09-05 07:34:00 51°11.75 2°46.4 7.5 315 15.4 101980 70
2003-09-05 07:34:04 51°11.74 2°46.38 7.5 44 15.4 101980 70
2003-09-05 07:34:10 51°11.73 2°46.35 7.6 313 15.4 101990 69
2003-09-05 07:34:14 51°11.73 2°46.33 7.4 311 15.4 101990 69
2003-09-05 07:34:20 51°11.72 2°46.3 7.3 42 15.5 101980 70
2003-09-05 07:34:24 51°11.71 2°46.28 6.7 313 15.5 101980 70
2003-09-05 07:34:30 51°11.7 2°46.25 7.4 43 15.5 101990 70
2003-09-05 07:34:34 51°11.69 2°46.23 7.2 307 15.5 101990 70
2003-09-05 07:34:40 51°11.68 2°46.2 7.1 39 15.5 101980 70
2003-09-05 07:34:44 51°11.68 2°46.18 8.1 313 15.5 101980 70
2003-09-05 07:34:50 51°11.67 2°46.15 7.4 315 15.5 101990 70
2003-09-05 07:34:54 51°11.66 2°46.13 6.7 229 15.5 101990 70
2003-09-05 07:35:00 51°11.65 2°46.1 6.7 227 15.5 101980 70
2003-09-05 07:35:04 51°11.65 2°46.08 7.3 312 15.5 101980 70
2003-09-05 07:35:10 51°11.64 2°46.05 7.7 308 15.5 101980 70
2003-09-05 07:35:14 51°11.63 2°46.04 7.3 312 15.5 101980 70
2003-09-05 07:35:20 51°11.62 2°46.01 6.8 309 15.5 101990 71
2003-09-05 07:35:24 51°11.61 2°45.99 7.3 229 15.5 101990 71
2003-09-05 07:35:30 51°11.6 2°45.96 7.3 315 15.6 101980 71
2003-09-05 07:35:34 51°11.6 2°45.94 7.3 43 15.6 101980 71
2003-09-05 07:35:40 51°11.59 2°45.91 7.3 227 15.6 101980 71
2003-09-05 07:35:44 51°11.58 2°45.89 7 314 15.6 101980 71
2003-09-05 07:35:50 51°11.57 2°45.86 7.3 226 15.6 101990 71
2003-09-05 07:35:54 51°11.56 2°45.84 7.4 314 15.6 101990 71
2003-09-05 07:36:00 51°11.55 2°45.81 7.7 316 15.6 101980 71
2003-09-05 07:36:04 51°11.55 2°45.79 7.4 312 15.6 101980 71
2003-09-05 07:36:10 51°11.54 2°45.76 7.6 312 15.6 101980 70
2003-09-05 07:36:14 51°11.53 2°45.74 7.8 313 15.6 101980 70
2003-09-05 07:36:20 51°11.52 2°45.71 7.7 314 15.6 101980 70
2003-09-05 07:36:24 51°11.51 2°45.69 7.9 323 15.6 101980 70
2003-09-05 07:36:30 51°11.5 2°45.66 7.5 314 15.6 101980 70
2003-09-05 07:36:34 51°11.5 2°45.64 7.8 314 15.6 101980 70
2003-09-05 07:36:40 51°11.49 2°45.61 7.6 312 15.6 101980 70
2003-09-05 07:36:44 51°11.48 2°45.59 7.6 316 15.6 101980 70
2003-09-05 07:36:50 51°11.47 2°45.56 8.4 320 15.6 101980 70
2003-09-05 07:36:54 51°11.46 2°45.54 7.8 314 15.6 101980 70
2003-09-05 07:37:00 51°11.45 2°45.51 7.6 313 15.6 101990 70
2003-09-05 07:37:04 51°11.45 2°45.5 7.8 315 15.6 101990 70
2003-09-05 07:37:10 51°11.44 2°45.47 7.8 41 15.6 101980 70
2003-09-05 07:37:14 51°11.43 2°45.45 7.9 313 15.6 101980 70
2003-09-05 07:37:20 51°11.42 2°45.42 7.8 316 15.6 101980 70
2003-09-05 07:37:24 51°11.41 2°45.4 8.6 312 15.6 101980 70
2003-09-05 07:37:30 51°11.4 2°45.37 7.7 309 15.6 101980 71
2003-09-05 07:37:34 51°11.4 2°45.35 8.6 229 15.6 101980 71
2003-09-05 07:37:40 51°11.39 2°45.32 8 314 15.6 101990 71
2003-09-05 07:37:44 51°11.38 2°45.3 7.6 313 15.6 101990 71
2003-09-05 07:37:50 51°11.37 2°45.27 7.9 310 15.6 101980 71
2003-09-05 07:37:54 51°11.36 2°45.25 8.1 226 15.6 101980 71
2003-09-05 07:38:00 51°11.35 2°45.22 7.7 310 15.6 101980 71
2003-09-05 07:38:04 51°11.35 2°45.2 8.6 310 15.6 101980 71
2003-09-05 07:38:10 51°11.34 2°45.17 7.6 313 15.6 101990 71
2003-09-05 07:38:14 51°11.33 2°45.15 8.2 314 15.6 101990 71
2003-09-05 07:38:20 51°11.32 2°45.12 7.6 314 15.5 101980 70
2003-09-05 07:38:24 51°11.31 2°45.1 7.7 314 15.5 101980 70
2003-09-05 07:38:30 51°11.3 2°45.07 7.6 310 15.5 101990 70
2003-09-05 07:38:34 51°11.29 2°45.05 7.8 309 15.5 101990 70
2003-09-05 07:38:40 51°11.28 2°45.03 7.2 314 15.5 101980 70
2003-09-05 07:38:44 51°11.28 2°45.01 7.8 227 15.5 101980 70
2003-09-05 07:38:50 51°11.27 2°44.98 7.5 42 15.5 101990 71
2003-09-05 07:38:54 51°11.26 2°44.96 8.7 227 15.5 101990 71
2003-09-05 07:39:00 51°11.25 2°44.93 7 228 15.5 101980 70
2003-09-05 07:39:04 51°11.24 2°44.91 7.9 43 15.5 101980 70
2003-09-05 07:39:10 51°11.23 2°44.88 8.4 314 15.5 101990 70
2003-09-05 07:39:14 51°11.23 2°44.86 7.6 313 15.5 101990 70
2003-09-05 07:39:20 51°11.22 2°44.83 7.5 318 15.5 101990 70
2003-09-05 07:39:24 51°11.21 2°44.81 7.7 315 15.5 101990 70
2003-09-05 07:39:30 51°11.2 2°44.78 8.3 313 15.5 101990 71
2003-09-05 07:39:34 51°11.19 2°44.76 8.4 317 15.5 101990 71
2003-09-05 07:39:40 51°11.18 2°44.73 8.3 312 15.5 101990 70
2003-09-05 07:39:44 51°11.18 2°44.71 7.2 226 15.5 101990 70
2003-09-05 07:39:50 51°11.17 2°44.68 7.5 315 15.5 101990 70
2003-09-05 07:39:54 51°11.16 2°44.66 7.1 318 15.5 101990 70
2003-09-05 07:40:00 51°11.15 2°44.63 7.6 320 15.6 101990 71
2003-09-05 07:40:04 51°11.14 2°44.61 7.7 319 15.6 101990 71
2003-09-05 07:40:10 51°11.13 2°44.58 7.7 318 15.5 101990 71
2003-09-05 07:40:14 51°11.13 2°44.56 7.8 37 15.5 101990 71
2003-09-05 07:40:20 51°11.12 2°44.53 7.8 313 15.5 101990 70
2003-09-05 07:40:24 51°11.11 2°44.51 8.3 42 15.5 101990 70
2003-09-05 07:40:30 51°11.1 2°44.48 7.3 316 15.5 101990 71
2003-09-05 07:40:34 51°11.09 2°44.46 8.5 318 15.5 101990 71
2003-09-05 07:40:40 51°11.08 2°44.43 8.1 320 15.5 101990 71
2003-09-05 07:40:44 51°11.07 2°44.41 7.6 320 15.5 101990 71
2003-09-05 07:40:50 51°11.06 2°44.38 7.8 324 15.5 101990 71
2003-09-05 07:40:54 51°11.06 2°44.36 8.8 319 15.5 101990 71
2003-09-05 07:41:00 51°11.05 2°44.33 7.8 41 15.5 101990 71
2003-09-05 07:41:04 51°11.04 2°44.31 7.9 323 15.5 101990 71
2003-09-05 07:41:10 51°11.03 2°44.28 7.9 318 15.5 101990 70
2003-09-05 07:41:14 51°11.02 2°44.27 7.6 320 15.5 101990 70
2003-09-05 07:41:20 51°11.01 2°44.24 7.6 320 15.5 101990 70
2003-09-05 07:41:24 51°11 2°44.22 8 319 15.5 101990 70
2003-09-05 07:41:30 51°10.99 2°44.19 7.7 320 15.5 101990 71
2003-09-05 07:41:34 51°10.99 2°44.17 8.3 321 15.5 101990 71
2003-09-05 07:41:40 51°10.98 2°44.14 8.7 317 15.5 101990 71
2003-09-05 07:41:44 51°10.97 2°44.12 7.3 41 15.5 101990 71
2003-09-05 07:41:50 51°10.96 2°44.09 7.4 319 15.5 101990 71
2003-09-05 07:41:54 51°10.95 2°44.07 8.2 317 15.5 101990 71
2003-09-05 07:42:00 51°10.94 2°44.04 7.8 319 15.5 101980 71
2003-09-05 07:42:04 51°10.93 2°44.02 8.5 315 15.5 101980 71
2003-09-05 07:42:10 51°10.93 2°43.99 7.3 320 15.5 101990 71
2003-09-05 07:42:14 51°10.92 2°43.97 7.5 324 15.5 101990 71
2003-09-05 07:42:20 51°10.91 2°43.94 7.2 319 15.5 101990 71
2003-09-05 07:42:24 51°10.9 2°43.92 7.8 316 15.5 101990 71
2003-09-05 07:42:30 51°10.89 2°43.89 7.2 227 15.5 101980 71
2003-09-05 07:42:34 51°10.88 2°43.87 7.4 316 15.5 101980 71
2003-09-05 07:42:40 51°10.88 2°43.84 7.2 320 15.5 101990 71
2003-09-05 07:42:44 51°10.87 2°43.82 8 227 15.5 101990 71
2003-09-05 07:42:50 51°10.86 2°43.79 7.5 228 15.5 101980 71
2003-09-05 07:42:54 51°10.85 2°43.77 6.6 227 15.5 101980 71
2003-09-05 07:43:00 51°10.84 2°43.74 6.6 318 15.5 101980 71
2003-09-05 07:43:04 51°10.84 2°43.72 7.1 315 15.5 101980 71
2003-09-05 07:43:10 51°10.83 2°43.69 7.5 316 15.5 101980 71
2003-09-05 07:43:14 51°10.82 2°43.67 7.1 321 15.5 101980 71
2003-09-05 07:43:20 51°10.81 2°43.64 6.9 42 15.5 101980 71
2003-09-05 07:43:24 51°10.81 2°43.62 6.3 313 15.5 101980 71
2003-09-05 07:43:30 51°10.8 2°43.58 5.7 318 15.4 101980 71
2003-09-05 07:43:34 51°10.8 2°43.56 5.8 315 15.4 101980 71
2003-09-05 07:43:40 51°10.79 2°43.53 4.5 43 15.4 101980 71
2003-09-05 07:43:44 51°10.79 2°43.51 5.3 310 15.4 101980 71
2003-09-05 07:43:50 51°10.79 2°43.47 3.8 43 15.4 101980 71
2003-09-05 07:43:54 51°10.79 2°43.45 3.6 318 15.4 101980 71
2003-09-05 07:44:00 51°10.79 2°43.42 3 324 15.4 101990 71
2003-09-05 07:44:04 51°10.8 2°43.39 3.4 329 15.4 101990 71
2003-09-05 07:44:10 51°10.8 2°43.36 3.4 318 15.5 101990 71
2003-09-05 07:44:14 51°10.8 2°43.34 3.5 332 15.5 101990 71
2003-09-05 07:44:20 51°10.81 2°43.3 3.3 333 15.5 101990 71
2003-09-05 07:44:24 51°10.81 2°43.28 3.1 334 15.5 101990 71
2003-09-05 07:44:30 51°10.81 2°43.25 3.3 323 15.5 101990 72
2003-09-05 07:44:34 51°10.81 2°43.22 3.6 328 15.5 101990 72
2003-09-05 07:44:40 51°10.82 2°43.19 3.9 328 15.5 101990 72
2003-09-05 07:44:44 51°10.82 2°43.17 3.7 325 15.5 101990 72
2003-09-05 07:44:50 51°10.83 2°43.13 3.6 328 15.5 101990 72
2003-09-05 07:44:54 51°10.83 2°43.11 4.1 322 15.5 101990 72
2003-09-05 07:45:00 51°10.83 2°43.08 3.9 339 15.5 101990 72
2003-09-05 07:45:04 51°10.83 2°43.05 3.8 323 15.5 101990 72
2003-09-05 07:45:10 51°10.84 2°43.02 3.2 315 15.5 101990 72
2003-09-05 07:45:14 51°10.84 2°43 3.3 324 15.5 101990 72
2003-09-05 07:45:20 51°10.85 2°42.96 3.2 228 15.5 101990 72
2003-09-05 07:45:24 51°10.85 2°42.94 3.7 329 15.5 101990 72
2003-09-05 07:45:30 51°10.85 2°42.91 3.9 229 15.6 101980 72
2003-09-05 07:45:34 51°10.86 2°42.88 3.4 316 15.6 101980 72
2003-09-05 07:45:40 51°10.86 2°42.85 3.9 323 15.6 101990 72
2003-09-05 07:45:44 51°10.86 2°42.83 3.4 328 15.6 101990 72
2003-09-05 07:45:50 51°10.87 2°42.79 3.8 327 15.6 101990 71
2003-09-05 07:45:54 51°10.87 2°42.77 4.1 323 15.6 101990 71
2003-09-05 07:46:00 51°10.87 2°42.74 3.4 338 15.6 101990 71
2003-09-05 07:46:04 51°10.88 2°42.71 3.5 312 15.6 101990 71
2003-09-05 07:46:10 51°10.88 2°42.68 3.2 320 15.6 101990 71
2003-09-05 07:46:14 51°10.88 2°42.66 4.3 41 15.6 101990 71
2003-09-05 07:46:20 51°10.89 2°42.62 3.7 321 15.6 101990 71
2003-09-05 07:46:24 51°10.89 2°42.6 3.9 321 15.6 101990 71
2003-09-05 07:46:30 51°10.89 2°42.57 3.8 41 15.6 101990 71
2003-09-05 07:46:34 51°10.9 2°42.54 3.6 315 15.6 101990 71
2003-09-05 07:46:40 51°10.9 2°42.51 3.6 320 15.6 101990 71
2003-09-05 07:46:44 51°10.9 2°42.49 3.2 321 15.6 101990 71
2003-09-05 07:46:50 51°10.91 2°42.45 2.9 318 15.6 101990 71
2003-09-05 07:46:54 51°10.91 2°42.43 3.8 323 15.6 101990 71
2003-09-05 07:47:00 51°10.92 2°42.4 3.7 330 15.7 101990 71
2003-09-05 07:47:04 51°10.92 2°42.38 3.4 324 15.7 101990 71
2003-09-05 07:47:10 51°10.92 2°42.34 3.4 324 15.7 101990 71
2003-09-05 07:47:14 51°10.93 2°42.32 3.6 320 15.7 101990 71
2003-09-05 07:47:20 51°10.93 2°42.29 3.8 324 15.7 102000 71
2003-09-05 07:47:24 51°10.93 2°42.26 3.6 313 15.7 102000 71
2003-09-05 07:47:30 51°10.94 2°42.23 4.2 328 15.7 101990 71
2003-09-05 07:47:34 51°10.94 2°42.21 3.3 314 15.7 101990 71
2003-09-05 07:47:40 51°10.95 2°42.17 3.6 316 15.8 102000 71
2003-09-05 07:47:44 51°10.95 2°42.15 3.3 316 15.8 102000 71
2003-09-05 07:47:50 51°10.95 2°42.12 3.3 313 15.8 101990 71
2003-09-05 07:47:52 51°10.96 2°42.11 3.1 317 15.8 101990 71
2003-09-05 07:48:00 51°10.96 2°42.06 3.6 333 15.8 101990 71
2003-09-05 07:48:04 51°10.97 2°42.04 4.1 330 15.8 101990 71
2003-09-05 07:48:10 51°10.97 2°42.01 4.4 319 15.8 101990 71
2003-09-05 07:48:14 51°10.97 2°41.98 3.7 326 15.8 101990 71
2003-09-05 07:48:20 51°10.98 2°41.95 4 321 15.8 101990 70
2003-09-05 07:48:24 51°10.98 2°41.93 4.1 315 15.8 101990 70
2003-09-05 07:48:30 51°10.98 2°41.9 4 313 15.8 102000 70
2003-09-05 07:48:34 51°10.99 2°41.87 3.9 317 15.8 102000 70
2003-09-05 07:48:40 51°10.99 2°41.84 4 318 15.9 102000 70
2003-09-05 07:48:44 51°10.99 2°41.82 4.8 314 15.9 102000 70
2003-09-05 07:48:50 51°10.99 2°41.78 4.4 313 15.9 101990 70
2003-09-05 07:48:54 51°10.99 2°41.76 4.7 317 15.9 101990 70
2003-09-05 07:49:00 51°10.99 2°41.73 4.9 229 15.9 101990 70
2003-09-05 07:49:04 51°10.99 2°41.71 5.6 316 15.9 101990 70
2003-09-05 07:49:10 51°10.98 2°41.67 5.3 227 15.8 101980 69
2003-09-05 07:49:14 51°10.98 2°41.65 5.5 228 15.8 101980 69
2003-09-05 07:49:20 51°10.97 2°41.62 5.9 43 15.8 101990 69
2003-09-05 07:49:24 51°10.97 2°41.6 6.9 317 15.8 101990 69
2003-09-05 07:49:30 51°10.96 2°41.57 7.1 315 15.8 101990 69
2003-09-05 07:49:34 51°10.95 2°41.55 8.1 323 15.8 101990 69
2003-09-05 07:49:40 51°10.94 2°41.52 6.9 322 15.9 101980 69
2003-09-05 07:49:44 51°10.94 2°41.51 7.9 317 15.9 101980 69
2003-09-05 07:49:50 51°10.92 2°41.48 8 318 15.9 101980 69
2003-09-05 07:49:54 51°10.91 2°41.46 9 316 15.9 101980 69
2003-09-05 07:50:00 51°10.9 2°41.44 7.8 320 15.9 101980 69
2003-09-05 07:50:04 51°10.89 2°41.42 8.8 317 15.9 101980 69
2003-09-05 07:50:10 51°10.88 2°41.39 8.5 320 15.9 101980 69
2003-09-05 07:50:14 51°10.87 2°41.38 8.5 318 15.9 101980 69
2003-09-05 07:50:20 51°10.86 2°41.35 7.2 320 15.9 101970 68
2003-09-05 07:50:24 51°10.85 2°41.33 8 318 15.9 101970 68
2003-09-05 07:50:30 51°10.84 2°41.31 7.9 315 15.9 101970 68
2003-09-05 07:50:34 51°10.83 2°41.29 7.6 320 15.9 101970 68
2003-09-05 07:50:40 51°10.82 2°41.26 7 322 15.9 101970 69
2003-09-05 07:50:44 51°10.81 2°41.24 7.6 315 15.9 101970 69
2003-09-05 07:50:50 51°10.8 2°41.21 7.8 317 15.9 101980 69
2003-09-05 07:50:54 51°10.79 2°41.2 7.6 226 15.9 101980 69
2003-09-05 07:51:00 51°10.78 2°41.17 7.9 316 16 101970 69
2003-09-05 07:51:04 51°10.77 2°41.15 7.5 317 16 101970 69
2003-09-05 07:51:10 51°10.76 2°41.12 7 319 15.9 101970 68
2003-09-05 07:51:14 51°10.75 2°41.1 6.7 319 15.9 101970 68
2003-09-05 07:51:20 51°10.74 2°41.07 7 323 15.9 101970 68
2003-09-05 07:51:24 51°10.73 2°41.06 7.8 325 15.9 101970 68
2003-09-05 07:51:30 51°10.72 2°41.03 7.4 322 16 101970 69
2003-09-05 07:51:34 51°10.71 2°41.01 8.3 318 16 101970 69
2003-09-05 07:51:40 51°10.7 2°40.99 7.6 320 16 101970 69
2003-09-05 07:51:44 51°10.69 2°40.97 7.3 321 16 101970 69
2003-09-05 07:51:50 51°10.68 2°40.94 7.4 329 16 101970 69
2003-09-05 07:51:54 51°10.67 2°40.93 7.8 319 16 101970 69
2003-09-05 07:51:58 51°10.66 2°40.91 7.9 318 16 101970 68
2003-09-05 07:52:04 51°10.65 2°40.88 8.2 227 16 101970 68
2003-09-05 07:52:09 51°10.63 2°40.86 7.4 313 16 101970 69
2003-09-05 07:52:15 51°10.62 2°40.84 7.4 43 16 101970 69
2003-09-05 07:52:18 51°10.61 2°40.82 7.7 325 16 101970 68
2003-09-05 07:52:25 51°10.6 2°40.79 8.2 318 16 101970 68
2003-09-05 07:52:29 51°10.59 2°40.78 8.4 319 16 101970 68
2003-09-05 07:52:35 51°10.57 2°40.75 7.9 42 16 101970 68
2003-09-05 07:52:39 51°10.57 2°40.74 8 316 16 101970 68
2003-09-05 07:52:44 51°10.55 2°40.71 7.3 320 16 101970 68
2003-09-05 07:52:49 51°10.54 2°40.69 8.4 323 16 101970 68
2003-09-05 07:52:55 51°10.53 2°40.67 7.3 40 16 101970 68
2003-09-05 07:52:59 51°10.52 2°40.65 7.6 319 16 101970 67
2003-09-05 07:53:05 51°10.5 2°40.63 7.7 324 16 101970 67
2003-09-05 07:53:09 51°10.5 2°40.61 7.5 322 16.1 101970 68
2003-09-05 07:53:15 51°10.48 2°40.59 8.2 319 16.1 101970 68
2003-09-05 07:53:19 51°10.47 2°40.57 7.9 320 16.1 101970 68
2003-09-05 07:53:25 51°10.46 2°40.54 7.2 317 16.1 101970 68
2003-09-05 07:53:29 51°10.45 2°40.53 7.1 321 16.1 101970 68
2003-09-05 07:53:35 51°10.44 2°40.5 7.3 317 16.1 101970 68
2003-09-05 07:53:39 51°10.43 2°40.48 6.8 324 16.1 101970 68
2003-09-05 07:53:45 51°10.41 2°40.46 8 325 16.1 101970 68
2003-09-05 07:53:49 51°10.4 2°40.44 8.6 326 16.1 101970 68
2003-09-05 07:53:55 51°10.39 2°40.42 7.5 320 16.1 101970 68
2003-09-05 07:53:59 51°10.38 2°40.4 8.7 327 16.1 101970 68
2003-09-05 07:54:05 51°10.37 2°40.38 7.4 327 16.1 101970 68
2003-09-05 07:54:09 51°10.36 2°40.36 8 322 16.2 101970 69
2003-09-05 07:54:15 51°10.34 2°40.33 7.8 323 16.2 101970 69
2003-09-05 07:54:19 51°10.33 2°40.32 7.8 323 16.2 101970 68
2003-09-05 07:54:25 51°10.32 2°40.29 8 328 16.2 101970 68
2003-09-05 07:54:29 51°10.31 2°40.28 8 326 16.2 101970 68
2003-09-05 07:54:35 51°10.3 2°40.25 7.8 324 16.2 101970 68
2003-09-05 07:54:39 51°10.29 2°40.23 8.5 326 16.2 101970 67
2003-09-05 07:54:45 51°10.27 2°40.21 8.7 325 16.2 101970 67
2003-09-05 07:54:49 51°10.26 2°40.19 7.5 325 16.2 101970 68
2003-09-05 07:54:55 51°10.25 2°40.17 7.9 324 16.2 101970 68
2003-09-05 07:54:59 51°10.24 2°40.15 8.5 328 16.3 101970 67
2003-09-05 07:55:05 51°10.23 2°40.13 9.1 328 16.3 101970 67
2003-09-05 07:55:09 51°10.22 2°40.11 8.8 323 16.3 101970 67
2003-09-05 07:55:15 51°10.2 2°40.09 7.9 326 16.3 101970 67
2003-09-05 07:55:19 51°10.19 2°40.07 8.4 325 16.3 101970 66
2003-09-05 07:55:25 51°10.18 2°40.05 8.8 324 16.3 101970 66
2003-09-05 07:55:29 51°10.17 2°40.03 8.7 332 16.3 101970 66
2003-09-05 07:55:35 51°10.16 2°40 9 329 16.3 101970 66
2003-09-05 07:55:39 51°10.15 2°39.99 9.3 322 16.4 101970 66
2003-09-05 07:55:45 51°10.13 2°39.96 9.6 324 16.4 101970 66
2003-09-05 07:55:49 51°10.12 2°39.95 8.7 320 16.4 101970 66
2003-09-05 07:55:55 51°10.11 2°39.92 8.2 322 16.4 101970 66
2003-09-05 07:55:59 51°10.1 2°39.9 8.4 322 16.4 101970 65
2003-09-05 07:56:05 51°10.09 2°39.88 8.4 322 16.4 101970 65
2003-09-05 07:56:09 51°10.08 2°39.86 8 331 16.4 101970 65
2003-09-05 07:56:15 51°10.06 2°39.84 8.4 322 16.4 101970 65
2003-09-05 07:56:19 51°10.05 2°39.82 8.9 326 16.4 101960 64
2003-09-05 07:56:25 51°10.04 2°39.79 8.5 325 16.4 101960 64
2003-09-05 07:56:29 51°10.03 2°39.78 8.8 325 16.5 101960 65
2003-09-05 07:56:35 51°10.02 2°39.75 8.9 324 16.5 101960 65
2003-09-05 07:56:39 51°10.01 2°39.74 9 321 16.4 101960 64
2003-09-05 07:56:45 51°9.99 2°39.71 9.9 322 16.4 101960 64
2003-09-05 07:56:49 51°9.98 2°39.69 9.5 321 16.5 101970 65
2003-09-05 07:56:55 51°9.97 2°39.67 8.8 325 16.5 101970 65
2003-09-05 07:56:59 51°9.96 2°39.65 8.7 319 16.5 101970 64
2003-09-05 07:57:05 51°9.95 2°39.63 8.5 325 16.5 101970 64
2003-09-05 07:57:09 51°9.94 2°39.61 8 320 16.5 101960 63
2003-09-05 07:57:15 51°9.92 2°39.58 8.5 329 16.5 101960 63
2003-09-05 07:57:19 51°9.91 2°39.57 9 325 16.5 101960 63
2003-09-05 07:57:25 51°9.9 2°39.54 8.7 326 16.5 101960 63
2003-09-05 07:57:29 51°9.89 2°39.53 9 322 16.5 101960 64
2003-09-05 07:57:35 51°9.87 2°39.5 8.1 329 16.5 101960 64
2003-09-05 07:57:39 51°9.87 2°39.48 8.6 326 16.5 101970 64
2003-09-05 07:57:45 51°9.85 2°39.46 8.3 329 16.5 101970 64
2003-09-05 07:57:49 51°9.84 2°39.44 9.7 326 16.5 101970 65
2003-09-05 07:57:55 51°9.83 2°39.42 8.6 322 16.5 101970 65
2003-09-05 07:57:59 51°9.82 2°39.4 8.5 322 16.5 101970 64
2003-09-05 07:58:05 51°9.8 2°39.37 8.1 320 16.5 101970 64
2003-09-05 07:58:09 51°9.79 2°39.36 8.4 317 16.5 101970 64
2003-09-05 07:58:15 51°9.78 2°39.33 8.6 325 16.5 101970 64
2003-09-05 07:58:19 51°9.77 2°39.31 7.2 324 16.5 101970 64
2003-09-05 07:58:25 51°9.76 2°39.28 7 325 16.5 101970 64
2003-09-05 07:58:29 51°9.75 2°39.26 6.9 229 16.5 101970 65
2003-09-05 07:58:35 51°9.75 2°39.23 6.3 320 16.5 101970 65
2003-09-05 07:58:39 51°9.74 2°39.21 6.2 318 16.5 101970 65
2003-09-05 07:58:45 51°9.74 2°39.18 6 323 16.5 101970 65
2003-09-05 07:58:49 51°9.73 2°39.16 5.1 317 16.5 101970 65
2003-09-05 07:58:55 51°9.73 2°39.12 4.4 319 16.5 101970 65
2003-09-05 07:58:59 51°9.73 2°39.1 4.6 316 16.5 101970 65
2003-09-05 07:59:05 51°9.73 2°39.07 3.8 318 16.5 101970 65
2003-09-05 07:59:09 51°9.74 2°39.04 4.5 40 16.5 101980 65
2003-09-05 07:59:15 51°9.74 2°39.01 3.6 315 16.5 101980 65
2003-09-05 07:59:19 51°9.74 2°38.99 2.8 320 16.5 101980 65
2003-09-05 07:59:25 51°9.75 2°38.96 2.7 332 16.5 101980 65
2003-09-05 07:59:29 51°9.75 2°38.93 2.5 331 16.5 101980 65
2003-09-05 07:59:35 51°9.76 2°38.9 1.9 340 16.5 101980 65
2003-09-05 07:59:39 51°9.77 2°38.88 1.8 2 16.5 101990 65
2003-09-05 07:59:45 51°9.78 2°38.86 1.8 11 16.5 101990 65
2003-09-05 07:59:49 51°9.79 2°38.84 2 14 16.5 101990 65
2003-09-05 07:59:55 51°9.81 2°38.81 2 40 16.5 101990 65
2003-09-05 07:59:59 51°9.82 2°38.8 2 40 16.5 101990 65
2003-09-05 08:00:05 51°9.84 2°38.78 2.5 57 16.5 101990 65
2003-09-05 08:00:09 51°9.85 2°38.77 2.4 69 16.5 101990 64
2003-09-05 08:00:15 51°9.87 2°38.75 2.3 50 16.5 101990 64
2003-09-05 08:00:19 51°9.88 2°38.74 2.4 54 16.4 101990 63
2003-09-05 08:00:25 51°9.9 2°38.73 2.9 51 16.4 101990 63
2003-09-05 08:00:29 51°9.92 2°38.72 2.8 50 16.4 101990 63
2003-09-05 08:00:35 51°9.94 2°38.71 3.3 55 16.4 101990 63
2003-09-05 08:00:39 51°9.95 2°38.7 4.3 54 16.4 101990 63
2003-09-05 08:00:45 51°9.98 2°38.69 4 60 16.4 101990 63
2003-09-05 08:00:49 51°9.99 2°38.68 4.1 65 16.4 101990 66
2003-09-05 08:00:55 51°10.01 2°38.67 3.7 62 16.4 101990 66
2003-09-05 08:00:59 51°10.03 2°38.66 3.6 60 16.4 101990 68
2003-09-05 08:01:05 51°10.05 2°38.65 3.1 61 16.4 101990 68
2003-09-05 08:01:09 51°10.06 2°38.64 3.1 61 16.4 101980 68
2003-09-05 08:01:15 51°10.08 2°38.62 2.9 66 16.4 101980 68
2003-09-05 08:01:19 51°10.1 2°38.61 2.8 59 16.4 101990 66
2003-09-05 08:01:25 51°10.12 2°38.59 2.8 48 16.4 101990 66
2003-09-05 08:01:29 51°10.13 2°38.58 2.2 40 16.4 101990 66
2003-09-05 08:01:35 51°10.15 2°38.56 2.3 54 16.4 101990 66
2003-09-05 08:01:39 51°10.16 2°38.55 2.3 59 16.3 101990 66
2003-09-05 08:01:45 51°10.18 2°38.53 2 54 16.3 101990 66
2003-09-05 08:01:49 51°10.19 2°38.52 1.8 50 16.3 101980 66
2003-09-05 08:01:55 51°10.21 2°38.5 2.1 29 16.3 101980 66
2003-09-05 08:01:59 51°10.22 2°38.49 1.6 30 16.3 101990 66
2003-09-05 08:02:05 51°10.24 2°38.47 1.6 42 16.3 101990 66
2003-09-05 08:02:09 51°10.26 2°38.46 1.7 36 16.3 101990 66
2003-09-05 08:02:15 51°10.27 2°38.44 1.5 33 16.3 101990 66
2003-09-05 08:02:19 51°10.29 2°38.42 2 27 16.3 101990 66
2003-09-05 08:02:25 51°10.31 2°38.4 1.7 24 16.3 101990 66
2003-09-05 08:02:29 51°10.32 2°38.39 2.7 23 16.3 101990 66
2003-09-05 08:02:35 51°10.34 2°38.37 3 21 16.3 101990 66
2003-09-05 08:02:39 51°10.35 2°38.36 2.6 28 16.3 101990 66
2003-09-05 08:02:45 51°10.37 2°38.34 1.9 36 16.3 101990 66
2003-09-05 08:02:49 51°10.38 2°38.32 2 34 16.3 101990 67
2003-09-05 08:02:55 51°10.4 2°38.3 1.8 8 16.3 101990 67
2003-09-05 08:02:59 51°10.4 2°38.28 2 347 16.3 101990 68
2003-09-05 08:03:05 51°10.42 2°38.25 3.2 341 16.3 101990 68
2003-09-05 08:03:09 51°10.42 2°38.23 3.2 317 16.3 101980 68
2003-09-05 08:03:15 51°10.43 2°38.2 4 308 16.3 101980 68
2003-09-05 08:03:19 51°10.44 2°38.18 4.8 308 16.3 101990 68
2003-09-05 08:03:25 51°10.44 2°38.15 5.2 305 16.3 101990 68
2003-09-05 08:03:29 51°10.44 2°38.13 5 313 16.3 101980 67
2003-09-05 08:03:35 51°10.44 2°38.09 5.6 228 16.3 101980 67
2003-09-05 08:03:39 51°10.44 2°38.07 5.7 323 16.3 101980 67
2003-09-05 08:03:45 51°10.44 2°38.04 7.6 310 16.3 101980 67
2003-09-05 08:03:49 51°10.43 2°38.02 7.7 316 16.3 101980 66
2003-09-05 08:03:55 51°10.42 2°37.99 9.5 227 16.3 101980 66
2003-09-05 08:03:59 51°10.42 2°37.98 8.8 317 16.4 101970 66
2003-09-05 08:04:05 51°10.4 2°37.95 9.6 319 16.4 101970 66
2003-09-05 08:04:09 51°10.39 2°37.93 9.5 323 16.4 101970 67
2003-09-05 08:04:15 51°10.38 2°37.91 9.2 323 16.4 101970 67
2003-09-05 08:04:19 51°10.37 2°37.9 9.6 323 16.4 101970 66
2003-09-05 08:04:25 51°10.35 2°37.87 10.4 325 16.4 101970 66
2003-09-05 08:04:29 51°10.34 2°37.86 9.4 331 16.4 101960 66
2003-09-05 08:04:35 51°10.33 2°37.84 9.4 324 16.4 101960 66
2003-09-05 08:04:39 51°10.32 2°37.82 9.4 324 16.4 101950 65
2003-09-05 08:04:45 51°10.3 2°37.8 9.7 325 16.4 101950 65
2003-09-05 08:04:49 51°10.29 2°37.79 11.3 327 16.3 101960 65
2003-09-05 08:04:55 51°10.27 2°37.77 10.4 328 16.3 101960 65
2003-09-05 08:04:59 51°10.26 2°37.76 10.8 325 16.4 101960 65
2003-09-05 08:05:05 51°10.24 2°37.73 10.8 326 16.4 101960 65
2003-09-05 08:05:09 51°10.23 2°37.72 10.1 325 16.4 101950 66
2003-09-05 08:05:15 51°10.22 2°37.7 10.3 327 16.4 101950 66
2003-09-05 08:05:19 51°10.21 2°37.68 9.4 323 16.4 101950 65
2003-09-05 08:05:25 51°10.19 2°37.66 10.2 325 16.4 101950 65
2003-09-05 08:05:29 51°10.18 2°37.65 9.7 328 16.4 101960 64
2003-09-05 08:05:35 51°10.17 2°37.62 10.8 326 16.4 101960 64
2003-09-05 08:05:39 51°10.16 2°37.61 10.2 324 16.4 101960 65
2003-09-05 08:05:45 51°10.14 2°37.58 10.6 323 16.4 101960 65
2003-09-05 08:05:49 51°10.13 2°37.57 9.8 321 16.5 101960 65
2003-09-05 08:05:55 51°10.11 2°37.54 9.9 323 16.5 101960 65
2003-09-05 08:05:59 51°10.1 2°37.53 10.2 326 16.5 101960 65
2003-09-05 08:06:05 51°10.09 2°37.51 10.8 326 16.5 101960 65
2003-09-05 08:06:09 51°10.08 2°37.49 9.4 321 16.5 101960 64
2003-09-05 08:06:15 51°10.06 2°37.47 10.2 322 16.5 101960 64
2003-09-05 08:06:19 51°10.05 2°37.45 10.3 326 16.5 101960 65
2003-09-05 08:06:25 51°10.04 2°37.43 10.9 331 16.5 101960 65
2003-09-05 08:06:29 51°10.03 2°37.41 11.3 324 16.5 101960 65
2003-09-05 08:06:35 51°10.01 2°37.39 9.7 322 16.5 101960 65
2003-09-05 08:06:39 51°10 2°37.37 9.5 324 16.6 101960 65
2003-09-05 08:06:45 51°9.99 2°37.35 9.8 326 16.6 101960 65
2003-09-05 08:06:49 51°9.98 2°37.33 10.3 322 16.6 101960 64
2003-09-05 08:06:55 51°9.96 2°37.31 10.5 325 16.6 101960 64
2003-09-05 08:06:59 51°9.95 2°37.3 10.4 326 16.6 101960 64
2003-09-05 08:07:05 51°9.93 2°37.27 10.9 324 16.6 101960 64
2003-09-05 08:07:09 51°9.92 2°37.26 9.7 326 16.6 101960 64
2003-09-05 08:07:15 51°9.91 2°37.24 9.5 323 16.6 101960 64
2003-09-05 08:07:19 51°9.9 2°37.22 10 320 16.6 101970 63
2003-09-05 08:07:25 51°9.88 2°37.2 10 325 16.6 101970 63
2003-09-05 08:07:29 51°9.87 2°37.18 10.3 324 16.6 101970 64
2003-09-05 08:07:35 51°9.86 2°37.16 10.2 328 16.6 101970 64
2003-09-05 08:07:39 51°9.85 2°37.14 10.1 323 16.6 101960 64
2003-09-05 08:07:45 51°9.83 2°37.12 9.9 326 16.6 101960 64
2003-09-05 08:07:49 51°9.82 2°37.1 9.7 330 16.6 101960 64
2003-09-05 08:07:55 51°9.8 2°37.08 10.7 324 16.6 101960 64
2003-09-05 08:07:59 51°9.79 2°37.07 9.6 321 16.6 101970 63
2003-09-05 08:08:05 51°9.78 2°37.04 9.8 324 16.6 101970 63
2003-09-05 08:08:09 51°9.77 2°37.03 10.2 325 16.6 101970 64
2003-09-05 08:08:15 51°9.75 2°37.01 10.2 327 16.6 101970 64
2003-09-05 08:08:19 51°9.74 2°36.99 10.2 330 16.6 101970 63
2003-09-05 08:08:25 51°9.73 2°36.97 9.2 325 16.6 101970 63
2003-09-05 08:08:29 51°9.72 2°36.95 9.5 319 16.6 101970 64
2003-09-05 08:08:35 51°9.7 2°36.93 10.3 323 16.6 101970 64
2003-09-05 08:08:39 51°9.69 2°36.91 10 319 16.6 101970 64
2003-09-05 08:08:45 51°9.68 2°36.89 9.6 323 16.6 101970 64
2003-09-05 08:08:49 51°9.67 2°36.87 8.7 324 16.7 101960 65
2003-09-05 08:08:55 51°9.65 2°36.85 10.4 324 16.7 101960 65
2003-09-05 08:08:59 51°9.64 2°36.83 9.4 325 16.7 101960 64
2003-09-05 08:09:05 51°9.63 2°36.81 9.9 321 16.7 101960 64
2003-09-05 08:09:09 51°9.62 2°36.8 9.9 323 16.7 101970 65
2003-09-05 08:09:15 51°9.6 2°36.77 9.9 322 16.7 101970 65
2003-09-05 08:09:19 51°9.59 2°36.76 9.4 326 16.7 101970 64
2003-09-05 08:09:25 51°9.57 2°36.73 10 321 16.7 101970 64
2003-09-05 08:09:29 51°9.56 2°36.72 10 324 16.7 101960 64
2003-09-05 08:09:35 51°9.55 2°36.7 10.3 321 16.7 101960 64
2003-09-05 08:09:39 51°9.54 2°36.68 9.5 331 16.7 101970 64
2003-09-05 08:09:45 51°9.52 2°36.66 10.2 326 16.7 101970 64
2003-09-05 08:09:49 51°9.51 2°36.64 9.1 327 16.7 101970 64
2003-09-05 08:09:55 51°9.5 2°36.62 10 325 16.7 101970 64
2003-09-05 08:09:59 51°9.49 2°36.6 9.3 325 16.7 101960 64
2003-09-05 08:10:05 51°9.47 2°36.58 9.5 324 16.7 101960 64
2003-09-05 08:10:09 51°9.46 2°36.56 11.6 327 16.7 101960 64
2003-09-05 08:10:15 51°9.45 2°36.54 10.4 328 16.7 101960 64
2003-09-05 08:10:19 51°9.44 2°36.52 10.3 324 16.7 101970 63
2003-09-05 08:10:25 51°9.42 2°36.5 10 330 16.7 101970 63
2003-09-05 08:10:29 51°9.41 2°36.49 10.7 326 16.7 101960 63
2003-09-05 08:10:35 51°9.39 2°36.46 9.9 325 16.7 101960 63
2003-09-05 08:10:39 51°9.38 2°36.45 10.1 322 16.7 101960 63
2003-09-05 08:10:45 51°9.37 2°36.43 9.8 322 16.7 101960 63
2003-09-05 08:10:49 51°9.36 2°36.41 9.6 322 16.7 101960 63
2003-09-05 08:10:55 51°9.35 2°36.39 8.7 326 16.7 101960 63
2003-09-05 08:10:59 51°9.34 2°36.37 9.1 322 16.7 101960 63
2003-09-05 08:11:05 51°9.32 2°36.35 9.1 328 16.7 101960 63
2003-09-05 08:11:09 51°9.31 2°36.33 9.9 323 16.7 101960 62
2003-09-05 08:11:15 51°9.3 2°36.31 8.9 321 16.7 101960 62
2003-09-05 08:11:19 51°9.29 2°36.3 8.7 318 16.7 101960 64
2003-09-05 08:11:25 51°9.27 2°36.27 7.6 318 16.7 101960 64
2003-09-05 08:11:29 51°9.27 2°36.25 7.3 318 16.7 101960 64
2003-09-05 08:11:35 51°9.26 2°36.22 8 315 16.7 101960 64
2003-09-05 08:11:39 51°9.25 2°36.2 7.2 316 16.7 101960 63
2003-09-05 08:11:45 51°9.24 2°36.18 7 307 16.7 101960 63
2003-09-05 08:11:49 51°9.24 2°36.16 5.7 303 16.7 101960 63
2003-09-05 08:11:55 51°9.24 2°36.14 4.8 295 16.7 101960 63
2003-09-05 08:11:59 51°9.24 2°36.12 4.4 292 16.7 101970 64
2003-09-05 08:12:05 51°9.24 2°36.1 4.4 279 16.7 101970 64
2003-09-05 08:12:09 51°9.24 2°36.09 4.9 268 16.7 101970 64
2003-09-05 08:12:15 51°9.24 2°36.07 3.6 260 16.7 101970 64
2003-09-05 08:12:19 51°9.24 2°36.06 3.4 257 16.7 101980 64
2003-09-05 08:12:25 51°9.24 2°36.04 2.5 249 16.7 101980 64
2003-09-05 08:12:29 51°9.24 2°36.03 3 244 16.7 101980 64
2003-09-05 08:12:35 51°9.25 2°36.01 3 239 16.7 101980 64
2003-09-05 08:12:39 51°9.25 2°36.01 3.1 227 16.7 101980 64
2003-09-05 08:12:45 51°9.26 2°35.99 2.7 224 16.7 101980 64
2003-09-05 08:12:49 51°9.26 2°35.98 2.9 224 16.7 101980 64
2003-09-05 08:12:55 51°9.26 2°35.97 3.2 218 16.7 101980 64
2003-09-05 08:12:59 51°9.27 2°35.97 2.9 217 16.6 101980 63
2003-09-05 08:13:05 51°9.27 2°35.95 2.8 214 16.6 101980 63
2003-09-05 08:13:09 51°9.27 2°35.95 2.9 212 16.6 101980 62
2003-09-05 08:13:15 51°9.28 2°35.94 2.7 214 16.6 101980 62
2003-09-05 08:13:19 51°9.28 2°35.93 3.1 210 16.6 101980 62
2003-09-05 08:13:25 51°9.29 2°35.92 3.7 210 16.6 101980 62
2003-09-05 08:13:29 51°9.29 2°35.92 3.5 214 16.5 101980 61
2003-09-05 08:13:35 51°9.29 2°35.91 3.6 215 16.5 101980 61
2003-09-05 08:13:39 51°9.3 2°35.9 3.3 216 16.6 101980 62
2003-09-05 08:13:45 51°9.3 2°35.89 3 217 16.6 101980 62
2003-09-05 08:13:49 51°9.3 2°35.89 3.4 211 16.6 101970 63
2003-09-05 08:13:55 51°9.31 2°35.88 3.5 210 16.6 101970 63
2003-09-05 08:13:59 51°9.31 2°35.87 3 209 16.6 101970 62
2003-09-05 08:14:05 51°9.31 2°35.86 3.3 209 16.6 101970 62
2003-09-05 08:14:09 51°9.32 2°35.86 3.2 211 16.5 101970 62
2003-09-05 08:14:15 51°9.32 2°35.85 3.3 210 16.5 101970 62
2003-09-05 08:14:19 51°9.32 2°35.84 3.1 210 16.5 101970 62
2003-09-05 08:14:25 51°9.32 2°35.84 3.9 216 16.5 101970 62
2003-09-05 08:14:29 51°9.33 2°35.83 3.8 217 16.5 101970 62
2003-09-05 08:14:35 51°9.33 2°35.82 4.3 219 16.5 101970 62
2003-09-05 08:14:39 51°9.33 2°35.82 3.7 225 16.5 101970 63
2003-09-05 08:14:45 51°9.33 2°35.81 3.8 228 16.5 101970 63
2003-09-05 08:14:49 51°9.33 2°35.81 4.5 230 16.6 101970 64
2003-09-05 08:14:55 51°9.34 2°35.8 3.9 227 16.6 101970 64
2003-09-05 08:14:59 51°9.34 2°35.79 4.3 227 16.6 101970 64
2003-09-05 08:15:05 51°9.34 2°35.79 4.4 230 16.6 101970 64
2003-09-05 08:15:09 51°9.34 2°35.78 4.5 230 16.6 101970 66
2003-09-05 08:15:15 51°9.34 2°35.78 4.9 230 16.6 101970 66
2003-09-05 08:15:19 51°9.34 2°35.77 4.2 229 16.6 101970 64
2003-09-05 08:15:25 51°9.35 2°35.77 4.3 235 16.6 101970 64
2003-09-05 08:15:29 51°9.35 2°35.76 4.6 232 16.6 101970 63
2003-09-05 08:15:35 51°9.35 2°35.76 4.4 236 16.6 101970 63
2003-09-05 08:15:39 51°9.35 2°35.75 3.9 243 16.5 101970 63
2003-09-05 08:15:45 51°9.35 2°35.75 4.7 238 16.5 101970 63
2003-09-05 08:15:49 51°9.35 2°35.74 4.3 238 16.5 101960 63
2003-09-05 08:15:55 51°9.35 2°35.74 4.9 229 16.5 101960 63
2003-09-05 08:15:59 51°9.35 2°35.73 3.9 244 16.5 101960 63
2003-09-05 08:16:05 51°9.35 2°35.73 4.3 242 16.5 101960 63
2003-09-05 08:16:09 51°9.35 2°35.73 4.3 232 16.6 101970 64
2003-09-05 08:16:15 51°9.35 2°35.72 5.6 240 16.6 101970 64
2003-09-05 08:16:19 51°9.35 2°35.72 5 240 16.6 101960 64
2003-09-05 08:16:25 51°9.36 2°35.71 5.1 241 16.6 101960 64
2003-09-05 08:16:29 51°9.36 2°35.71 5.2 243 16.6 101970 65
2003-09-05 08:16:35 51°9.36 2°35.71 5 248 16.6 101970 65
2003-09-05 08:16:39 51°9.36 2°35.7 4.8 248 16.6 101960 65
2003-09-05 08:16:45 51°9.36 2°35.7 4.1 250 16.6 101960 65
2003-09-05 08:16:49 51°9.36 2°35.7 4.1 250 16.6 101960 63
2003-09-05 08:16:55 51°9.36 2°35.69 3.9 250 16.6 101960 63
2003-09-05 08:16:59 51°9.36 2°35.69 5.4 246 16.6 101960 62
2003-09-05 08:17:05 51°9.36 2°35.69 4.9 248 16.6 101960 62
2003-09-05 08:17:09 51°9.36 2°35.68 4 253 16.5 101960 62
2003-09-05 08:17:15 51°9.36 2°35.68 4.8 250 16.5 101960 62
2003-09-05 08:17:19 51°9.36 2°35.68 4.5 249 16.6 101960 64
2003-09-05 08:17:25 51°9.36 2°35.67 3.7 253 16.6 101960 64
2003-09-05 08:17:29 51°9.36 2°35.67 3.7 253 16.5 101960 63
2003-09-05 08:17:35 51°9.36 2°35.67 3.9 253 16.5 101960 63
2003-09-05 08:17:39 51°9.36 2°35.66 4.2 255 16.5 101960 62
2003-09-05 08:17:45 51°9.36 2°35.66 4.6 252 16.5 101960 62
2003-09-05 08:17:49 51°9.36 2°35.66 4.1 252 16.5 101960 63
2003-09-05 08:17:55 51°9.36 2°35.65 3.8 250 16.5 101960 63
2003-09-05 08:17:59 51°9.36 2°35.65 3.7 251 16.5 101960 63
2003-09-05 08:18:05 51°9.36 2°35.65 3.9 258 16.5 101960 63
2003-09-05 08:18:09 51°9.36 2°35.64 4.1 259 16.5 101960 63
2003-09-05 08:18:15 51°9.36 2°35.64 3.7 256 16.5 101960 63
2003-09-05 08:18:19 51°9.36 2°35.64 3.7 254 16.5 101960 63
2003-09-05 08:18:25 51°9.36 2°35.63 4.2 257 16.5 101960 63
2003-09-05 08:18:29 51°9.36 2°35.63 4.1 256 16.5 101960 64
2003-09-05 08:18:35 51°9.35 2°35.63 3.8 252 16.5 101960 64
2003-09-05 08:18:39 51°9.35 2°35.62 3.8 254 16.6 101960 64
2003-09-05 08:18:45 51°9.35 2°35.62 4.4 255 16.6 101960 64
2003-09-05 08:18:49 51°9.35 2°35.62 3.9 255 16.6 101960 65
2003-09-05 08:18:55 51°9.35 2°35.61 3.8 253 16.6 101960 65
2003-09-05 08:18:59 51°9.35 2°35.61 4.5 249 16.7 101960 66
2003-09-05 08:19:05 51°9.35 2°35.61 3.9 254 16.7 101960 66
2003-09-05 08:19:09 51°9.35 2°35.6 4.6 248 16.6 101960 64
2003-09-05 08:19:15 51°9.35 2°35.6 4.8 246 16.6 101960 64
2003-09-05 08:19:19 51°9.35 2°35.6 4.1 252 16.6 101960 63
2003-09-05 08:19:25 51°9.35 2°35.59 4.9 248 16.6 101960 63
2003-09-05 08:19:29 51°9.35 2°35.59 4.4 246 16.6 101960 64
2003-09-05 08:19:35 51°9.35 2°35.59 4.2 258 16.6 101960 64
2003-09-05 08:19:39 51°9.35 2°35.58 3.9 249 16.6 101950 63
2003-09-05 08:19:45 51°9.35 2°35.58 3.8 255 16.6 101950 63
2003-09-05 08:19:49 51°9.35 2°35.58 4.8 248 16.5 101950 62
2003-09-05 08:19:55 51°9.35 2°35.57 5.1 246 16.5 101950 62
2003-09-05 08:19:59 51°9.35 2°35.57 3.7 252 16.5 101960 63
2003-09-05 08:20:05 51°9.35 2°35.57 4.7 252 16.5 101960 63
2003-09-05 08:20:09 51°9.35 2°35.57 5.4 248 16.6 101950 64
2003-09-05 08:20:15 51°9.35 2°35.56 4.5 254 16.6 101950 64
2003-09-05 08:20:19 51°9.35 2°35.56 5.5 245 16.6 101950 63
2003-09-05 08:20:25 51°9.35 2°35.56 3.9 247 16.6 101950 63
2003-09-05 08:20:29 51°9.35 2°35.56 5 244 16.6 101950 63
2003-09-05 08:20:35 51°9.35 2°35.55 4 250 16.6 101950 63
2003-09-05 08:20:39 51°9.35 2°35.55 4.1 245 16.6 101950 62
2003-09-05 08:20:45 51°9.35 2°35.55 3.3 253 16.6 101950 62
2003-09-05 08:20:49 51°9.35 2°35.54 3.8 251 16.5 101950 61
2003-09-05 08:20:55 51°9.35 2°35.54 4.7 242 16.5 101950 61
2003-09-05 08:20:59 51°9.35 2°35.54 4.7 240 16.5 101950 61
2003-09-05 08:21:05 51°9.35 2°35.54 5.2 237 16.5 101950 61
2003-09-05 08:21:09 51°9.35 2°35.53 4.5 238 16.6 101950 62
2003-09-05 08:21:15 51°9.35 2°35.53 5.5 232 16.6 101950 62
2003-09-05 08:21:19 51°9.35 2°35.53 4.9 234 16.6 101950 62
2003-09-05 08:21:25 51°9.36 2°35.53 4.7 230 16.6 101950 62
2003-09-05 08:21:29 51°9.36 2°35.52 4.8 233 16.6 101950 63
2003-09-05 08:21:35 51°9.36 2°35.52 4.3 234 16.6 101950 63
2003-09-05 08:21:39 51°9.36 2°35.52 4.9 232 16.6 101950 63
2003-09-05 08:21:45 51°9.36 2°35.52 5.3 232 16.6 101950 63
2003-09-05 08:21:49 51°9.36 2°35.51 5.2 226 16.6 101950 63
2003-09-05 08:21:55 51°9.36 2°35.51 5.1 225 16.6 101950 63
2003-09-05 08:21:59 51°9.36 2°35.51 4.4 227 16.6 101940 63
2003-09-05 08:22:05 51°9.36 2°35.51 4.1 223 16.6 101940 63
2003-09-05 08:22:09 51°9.36 2°35.5 4.5 222 16.7 101940 63
2003-09-05 08:22:15 51°9.36 2°35.5 4.8 222 16.7 101940 63
2003-09-05 08:22:19 51°9.36 2°35.5 4.9 221 16.6 101940 63
2003-09-05 08:22:25 51°9.36 2°35.5 4.9 219 16.6 101940 63
2003-09-05 08:22:29 51°9.36 2°35.5 4.6 220 16.6 101950 63
2003-09-05 08:22:35 51°9.37 2°35.49 4.4 222 16.6 101950 63